Sanford, NC

2:55 AM EDT on May 26, 2017 (GMT -0400)
Raleigh Executive Jetport

Weather History for KTTA - September, 2013

Change the Weather History Date:

Thursday, September 26, 2013

  Actual Average (KHRJ) Record (KHRJ)
Temperature  
Mean Temperature 54 °F -  
Max Temperature 58 °F 78 °F 93 °F (1986)
Min Temperature 50 °F 56 °F 41 °F (1990)
Degree Days  
Heating Degree Days 11    
Growing Degree Days 4 (Base 50)    
Moisture  
Dew Point 54 °F    
Average Humidity 96    
Maximum Humidity 97    
Minimum Humidity 94    
Precipitation  
Precipitation 0.00 in - - ()
Sea Level Pressure  
Sea Level Pressure 29.90 in    
Wind  
Wind Speed 0 mph (North)    
Max Wind Speed 0 mph    
Max Gust Speed -    
Visibility 5 miles    
Events Fog    
Averages and records for this station are not official NWS values.
T = Trace of Precipitation, MM = Missing Value Source: NWS Daily Summary

Daily Weather History Graph

Daily Weather History Graph

Search for Another Location

Airport or City:

Trip Planner

Search our weather history database for the weather conditions in past years. The results will help you decide how hot, cold, wet, or windy it might be!

Date:

Astronomy

Sep. 26, 2013 Rise Set
Actual Time 7:07 AM EDT 7:07 PM EDT
Civil Twilight 6:42 AM EDT 7:32 PM EDT
Nautical Twilight 6:12 AM EDT 8:02 PM EDT
Astronomical Twilight 5:42 AM EDT 8:31 PM EDT
Moon No Moon Rise 1:48 PM EDT
Length of Visible Light 12h 50m
Length of Day
11h 59m
Waning Gibbous, 55% of the Moon is Illuminated
Sep 26
Waning Gibbous
Sep 26
Last Quarter
Oct 4
New
Oct 11
First Quarter
Oct 18
Full

Hourly Weather History & Observations

Time (EDT) Temp. Dew Point Humidity Pressure Visibility Wind Dir Wind Speed Gust Speed Precip Events Conditions
12:15 AM 58.6 °F 56.8 °F 94% 29.91 in 7.0 mi Calm Calm - N/A   Overcast
12:35 AM 58.1 °F 56.3 °F 94% 29.91 in 7.0 mi Calm Calm - N/A   Overcast
12:55 AM 57.7 °F 56.3 °F 95% 29.91 in 7.0 mi Calm Calm - N/A   Mostly Cloudy
1:15 AM 57.0 °F 55.6 °F 95% 29.90 in 4.0 mi Calm Calm - N/A   Scattered Clouds
1:35 AM 56.3 °F 55.2 °F 96% 29.89 in 1.0 mi Calm Calm - N/A   Overcast
1:55 AM 55.6 °F 54.5 °F 96% 29.90 in 2.5 mi Calm Calm - N/A   Overcast
2:15 AM 56.3 °F 55.4 °F 97% 29.89 in 3.0 mi Calm Calm - N/A   Overcast
2:35 AM 56.3 °F 55.4 °F 97% 29.88 in 3.0 mi Calm Calm - N/A   Overcast
2:55 AM 55.6 °F 54.7 °F 97% 29.88 in 3.0 mi Calm Calm - N/A   Overcast
3:15 AM 55.6 °F 54.7 °F 97% 29.88 in 3.0 mi Calm Calm - N/A   Overcast
3:35 AM 55.8 °F 55.0 °F 97% 29.88 in 5.0 mi Calm Calm - N/A   Overcast
3:55 AM 55.4 °F 54.5 °F 97% 29.89 in 3.0 mi Calm Calm - N/A   Overcast
4:15 AM 55.2 °F 54.3 °F 97% 29.89 in 4.0 mi Calm Calm - N/A   Mostly Cloudy
4:35 AM 55.2 °F 54.3 °F 97% 29.89 in 5.0 mi Calm Calm - N/A   Mostly Cloudy
4:55 AM 55.2 °F 54.3 °F 97% 29.89 in 10.0 mi Calm Calm - N/A   Overcast
5:15 AM 55.2 °F 53.8 °F 95% 29.89 in 10.0 mi Calm Calm - N/A   Overcast
5:35 AM 54.5 °F 52.9 °F 94% 29.89 in 7.0 mi Calm Calm - N/A   Overcast
5:55 AM 54.0 °F 52.7 °F 95% 29.89 in 5.0 mi Calm Calm - N/A   Overcast
6:15 AM 53.2 °F 52.0 °F 95% 29.90 in 10.0 mi Calm Calm - N/A   Overcast
6:35 AM 52.7 °F 51.4 °F 95% 29.90 in 3.0 mi Calm Calm - N/A   Overcast
6:55 AM 52.0 °F 51.1 °F 97% 29.91 in 0.8 mi Calm Calm - N/A   Overcast
7:15 AM 50.2 °F 49.3 °F 97% 29.91 in 0.2 mi Calm Calm - N/A Fog Fog
7:35 AM 50.9 °F 50.2 °F 97% 29.92 in 2.5 mi Calm Calm - N/A   Overcast
7:55 AM 50.4 °F 49.5 °F 97% 29.92 in 1.8 mi Calm Calm - N/A   Overcast
8:15 AM 52.0 °F 51.3 °F 97% 29.93 in 2.5 mi Calm Calm - N/A   Overcast
8:35 AM 54.5 °F 53.6 °F 97% 29.93 in 10.0 mi Calm Calm - N/A   Overcast